Weather History for Huntsville Madison, AL

Change the Weather History Date:

Wednesday, December 5, 2012

  Actual Average (KHSV) Record (KHSV)
Temperature  
Mean Temperature 52 °F 46 °F  
Max Temperature 59 °F 56 °F 79 °F (1998)
Min Temperature 44 °F 37 °F 18 °F (1907)
Degree Days  
Heating Degree Days 14 19  
Month to date heating degree days 92  
Since 1 July heating degree days 619  
Cooling Degree Days 0 0  
Month to date cooling degree days 0  
Year to date cooling degree days 1949  
Growing Degree Days 2 (Base 50)    
Moisture  
Dew Point 44 °F    
Average Humidity 72    
Maximum Humidity 94    
Minimum Humidity 44    
Precipitation  
Precipitation 0.00 in 0.19 in 2.15 in (1910)
Month to date precipitation 0.97  
Year to date precipitation 49.54  
Snow  
Snow 0.00 in - - ()
Month to date snowfall  
Since 1 July snowfall  
Snow Depth -    
Sea Level Pressure  
Sea Level Pressure 30.19 in    
Wind  
Wind Speed 2 mph (NNE)    
Max Wind Speed 9 mph    
Max Gust Speed -    
Visibility 9 miles    
Events      
T = Trace of Precipitation, MM = Missing Value Source: NWS Daily Summary

Daily Weather History Graph

Daily Weather History Graph

Search for Another Location

Airport:

Trip Planner

Search our weather history database for the weather conditions in past years. The results will help you decide how hot, cold, wet, or windy it might be!

Date:

Astronomy

Dec. 05, 2012 Rise Set
Actual Time 6:39 AM CST 4:34 PM CST
Civil Twilight 6:11 AM CST 5:02 PM CST
Nautical Twilight 5:40 AM CST 5:33 PM CST
Astronomical Twilight 5:09 AM CST 6:04 PM CST
Moon 11:11 PM CST (12/5) 11:13 AM CST (12/5)
Length of Visible Light 10h 51m
Length of Day
9h 55m
Waning Gibbous, 59% of the Moon is Illuminated
Dec 5
Waning Gibbous
Dec 6
Last Quarter
Dec 13
New
Dec 19
First Quarter
Dec 28
Full

Hourly Weather History & Observations

Time (CST) Temp. Windchill Dew Point Humidity Pressure Visibility Wind Dir Wind Speed Gust Speed Precip Events Conditions
12:15 AM 55.4 °F - 53.6 °F 94% 30.19 in 10.0 mi Calm Calm - N/A   Overcast
12:35 AM 55.4 °F - 51.8 °F 88% 30.20 in 10.0 mi Calm Calm - N/A   Mostly Cloudy
12:55 AM 55.4 °F - 51.8 °F 88% 30.20 in 10.0 mi Calm Calm - N/A   Mostly Cloudy
1:15 AM 53.6 °F - 51.8 °F 94% 30.20 in 3.0 mi Calm Calm - N/A   Mostly Cloudy
1:55 AM 51.8 °F - 50.0 °F 94% 30.19 in 0.8 mi Calm Calm - N/A   Overcast
2:15 AM 53.6 °F - 50.0 °F 88% 30.19 in 7.0 mi Calm Calm - N/A   Overcast
2:35 AM 53.6 °F - 51.8 °F 94% 30.18 in 7.0 mi Calm Calm - N/A   Overcast
2:55 AM 53.6 °F - 50.0 °F 88% 30.19 in 7.0 mi NNW 3.5 mph - N/A   Overcast
3:15 AM 53.6 °F - 51.8 °F 94% 30.19 in 7.0 mi NNW 4.6 mph - N/A   Overcast
3:35 AM 53.6 °F - 51.8 °F 94% 30.19 in 10.0 mi Calm Calm - N/A   Overcast
3:55 AM 53.6 °F - 51.8 °F 94% 30.19 in 10.0 mi NNW 5.8 mph - N/A   Overcast
4:15 AM 55.4 °F - 53.6 °F 94% 30.19 in 7.0 mi NNW 3.5 mph - N/A   Overcast
4:35 AM 55.4 °F - 53.6 °F 94% 30.18 in 1.0 mi Calm Calm - N/A   Overcast
4:55 AM 55.4 °F - 53.6 °F 94% 30.19 in 0.8 mi Calm Calm - N/A   Overcast
5:15 AM 55.4 °F - 53.6 °F 94% 30.19 in 4.0 mi NNE 3.5 mph - N/A   Overcast
5:35 AM 55.4 °F - 53.6 °F 94% 30.20 in 5.0 mi NNE 5.8 mph - N/A   Overcast
5:55 AM 55.4 °F - 53.6 °F 94% 30.22 in 5.0 mi North 6.9 mph - N/A   Overcast
6:15 AM 55.4 °F - 51.8 °F 88% 30.22 in 7.0 mi North 4.6 mph - N/A   Overcast
6:35 AM 55.4 °F - 51.8 °F 88% 30.23 in 7.0 mi North 5.8 mph - N/A   Overcast
6:55 AM 53.6 °F - 51.8 °F 94% 30.24 in 5.0 mi NNE 6.9 mph - N/A   Overcast
8:35 AM 53.6 °F - 46.4 °F 77% 30.26 in 10.0 mi North 9.2 mph - N/A   Overcast
8:55 AM 53.6 °F - 44.6 °F 72% 30.26 in 10.0 mi North 6.9 mph - N/A   Overcast
9:15 AM 53.6 °F - 44.6 °F 72% 30.27 in 10.0 mi NNE 4.6 mph - N/A   Overcast
9:35 AM 53.6 °F - 46.4 °F 77% 30.27 in 10.0 mi NNE 6.9 mph - N/A   Overcast
9:55 AM 53.6 °F - 46.4 °F 77% 30.27 in 10.0 mi NNE 5.8 mph - N/A   Overcast
10:15 AM 55.4 °F - 46.4 °F 72% 30.26 in 10.0 mi North 5.8 mph - N/A   Overcast
10:35 AM 55.4 °F - 46.4 °F 72% 30.26 in 10.0 mi North 6.9 mph - N/A   Mostly Cloudy
10:55 AM 55.4 °F - 46.4 °F 72% 30.25 in 10.0 mi NNE 6.9 mph - N/A   Overcast
11:15 AM 55.4 °F - 46.4 °F 72% 30.24 in 10.0 mi NNE 6.9 mph - N/A   Overcast
11:35 AM 57.2 °F - 46.4 °F 67% 30.23 in 10.0 mi NNE 4.6 mph - N/A   Overcast
11:55 AM 59.0 °F - 46.4 °F 63% 30.22 in 10.0 mi NNE 6.9 mph - N/A   Overcast
12:15 PM 59.0 °F - 44.6 °F 59% 30.21 in 10.0 mi NNE 5.8 mph - N/A   Overcast
12:35 PM 59.0 °F - 44.6 °F 59% 30.20 in 10.0 mi North 8.1 mph - N/A   Overcast
12:55 PM 59.0 °F - 44.6 °F 59% 30.19 in 10.0 mi NE 5.8 mph - N/A   Overcast
1:15 PM 59.0 °F - 44.6 °F 59% 30.19 in 10.0 mi NNE 5.8 mph - N/A   Overcast
1:35 PM 57.2 °F - 42.8 °F 59% 30.19 in 10.0 mi NNE 6.9 mph - N/A   Overcast
1:55 PM 57.2 °F - 39.2 °F 51% 30.18 in 10.0 mi North 5.8 mph - N/A   Overcast
2:15 PM 57.2 °F - 39.2 °F 51% 30.17 in 10.0 mi NNE 3.5 mph - N/A   Overcast
2:35 PM 57.2 °F - 37.4 °F 48% 30.17 in 10.0 mi NNE 5.8 mph - N/A   Overcast
2:55 PM 57.2 °F - 37.4 °F 48% 30.18 in 10.0 mi NNE 4.6 mph - N/A   Overcast
3:15 PM 57.2 °F - 37.4 °F 48% 30.18 in 10.0 mi North 3.5 mph - N/A   Overcast
3:35 PM 57.2 °F - 35.6 °F 44% 30.18 in 10.0 mi NNE 3.5 mph - N/A   Overcast
3:55 PM 57.2 °F - 35.6 °F 44% 30.18 in 10.0 mi Calm Calm - N/A   Overcast
4:15 PM 55.4 °F - 37.4 °F 51% 30.18 in 10.0 mi Calm Calm - N/A   Drizzle
4:35 PM 55.4 °F - 35.6 °F 47% 30.17 in 10.0 mi Calm Calm - N/A   Overcast
4:55 PM 55.4 °F - 35.6 °F 47% 30.17 in 10.0 mi Calm Calm - N/A   Overcast
5:15 PM 55.4 °F - 37.4 °F 51% 30.17 in 10.0 mi North 3.5 mph - N/A   Overcast
5:35 PM 53.6 °F - 41.0 °F 62% 30.18 in 10.0 mi Calm Calm - N/A   Overcast
5:55 PM 55.4 °F - 37.4 °F 51% 30.18 in 10.0 mi Calm Calm - N/A   Overcast
6:15 PM 55.4 °F - 37.4 °F 51% 30.17 in 10.0 mi Calm Calm - N/A   Overcast
6:35 PM 55.4 °F - 37.4 °F 51% 30.17 in 10.0 mi Calm Calm - N/A   Overcast
6:55 PM 53.6 °F - 41.0 °F 62% 30.17 in 10.0 mi Calm Calm - N/A   Overcast
7:15 PM 55.4 °F - 37.4 °F 51% 30.17 in 10.0 mi Calm Calm - N/A   Overcast
7:35 PM 55.4 °F - 33.8 °F 44% 30.16 in 10.0 mi Calm Calm - N/A   Overcast
7:55 PM 55.4 °F - 35.6 °F 47% 30.16 in 10.0 mi Calm Calm - N/A   Overcast
8:15 PM 51.8 °F - 37.4 °F 58% 30.16 in 10.0 mi Calm Calm - N/A   Overcast
8:35 PM 51.8 °F - 41.0 °F 67% 30.16 in 10.0 mi Calm Calm - N/A   Mostly Cloudy
8:55 PM 50.0 °F - 42.8 °F 76% 30.15 in 10.0 mi Calm Calm - N/A   Scattered Clouds
9:15 PM 48.2 °F - 42.8 °F 82% 30.14 in 10.0 mi Calm Calm - N/A   Clear
9:35 PM 46.4 °F - 39.2 °F 76% 30.14 in 10.0 mi Calm Calm - N/A   Clear
9:55 PM 46.4 °F - 41.0 °F 81% 30.14 in 10.0 mi Calm Calm - N/A   Clear
10:15 PM 44.6 °F 43.1 °F 41.0 °F 87% 30.14 in 10.0 mi North 3.5 mph - N/A   Clear
10:35 PM 44.6 °F - 39.2 °F 81% 30.13 in 10.0 mi Calm Calm - N/A   Clear
10:55 PM 44.6 °F - 39.2 °F 81% 30.12 in 10.0 mi Calm Calm - N/A   Clear
11:15 PM 44.6 °F - 41.0 °F 87% 30.12 in 10.0 mi Calm Calm - N/A   Scattered Clouds
11:35 PM 44.6 °F - 41.0 °F 87% 30.12 in 10.0 mi Calm Calm - N/A   Overcast
11:55 PM 46.4 °F - 41.0 °F 81% 30.12 in 10.0 mi Calm Calm - N/A   Overcast